Waarnemingen

Advertentie
Mijn weer
Reims-Prunay, Frankrijk (7072): temperatuur & dauwpunt: 13.10.2017 12:00:00 - 19.10.2017 12:00:00 (CEST)Reims-Prunay, Frankrijk (7072): temperatuur 5cm: 13.10.2017 12:00:00 - 19.10.2017 12:00:00 (CEST)Reims-Prunay, Frankrijk (7072): temperatuur -20cm & temperatuur -100cm: 13.10.2017 12:00:00 - 19.10.2017 12:00:00 (CEST)Reims-Prunay, Frankrijk (7072): windsnelheid & windstoten: 13.10.2017 12:00:00 - 19.10.2017 12:00:00 (CEST)Reims-Prunay, Frankrijk (7072): windrichting: 13.10.2017 12:00:00 - 19.10.2017 12:00:00 (CEST)Reims-Prunay, Frankrijk (7072): luchtdruk: 13.10.2017 12:00:00 - 19.10.2017 12:00:00 (CEST)Reims-Prunay, Frankrijk (7072): zicht: 13.10.2017 12:00:00 - 19.10.2017 12:00:00 (CEST)Reims-Prunay, Frankrijk (7072): Zonneschijnduur: 13.10.2017 12:00:00 - 19.10.2017 12:00:00 (CEST)Reims-Prunay, Frankrijk (7072): neerslag: 13.10.2017 12:00:00 - 19.10.2017 12:00:00 (CEST)
Datum & Tijd tt [°C] td [°C] tt 5cm [°C] tt -20cm [°C] tt -100cm [°C] ff [km/u] ff [kn] fx [km/u] fx [kn] dd ppp [hPa] vv [km] sd [min] rr [mm]
19.10.2017 12:00:00 17,7 13,4 16,8 13,9 15,0 18 10 27 15 OZO 1010,8 10 50 0,0
19.10.2017 11:00:00 16,1 12,1 16,0 14,0 15,0 21 11 29 16 ZZO 1011,3 10 56 0,0
19.10.2017 10:00:00 12,7 11,9 10,6 14,0 15,0 11 6 23 12 O 1011,2 10 34 0,0
19.10.2017 09:00:00 10,3 9,4 8,7 14,1 15,0 15 8 22 12 OZO 1011,2 10 24 0,0
19.10.2017 08:00:00 9,8 8,7 8,1 14,2 15,0 11 6 21 11 O 1010,8 10 0 0,2
19.10.2017 07:00:00 8,7 8,2 7,1 14,3 15,0 13 7 18 10 O 1011,0 7 0 0,0
19.10.2017 06:00:00 8,1 7,7 5,7 14,4 15,0 11 6 15 8 O 1010,8 6 0 0,0
19.10.2017 05:00:00 8,0 7,4 5,9 14,5 15,0 8 4 17 9 O 1011,4 6 0 0,0
19.10.2017 04:00:00 8,2 7,4 6,8 14,6 15,0 9 5 14 8 O 1011,4 6 0 0,0
19.10.2017 03:00:00 8,8 7,9 4,8 14,7 15,0 8 4 14 8 O 1012,0 7 0 0,0
19.10.2017 02:00:00 9,4 8,6 5,3 14,7 15,0 2 1 16 8 - 1012,1 10 0 0,0
19.10.2017 01:00:00 9,2 8,4 5,9 14,8 15,0 9 5 13 7 O 1012,6 9 0 0,0
19.10.2017 00:00:00 10,1 9,2 8,7 14,9 15,0 9 5 13 7 O 1012,7 9 0 0,0
18.10.2017 23:00:00 11,5 10,6 6,4 15,0 15,0 5 3 10 6 ONO 1013,1 10 0 0,0
18.10.2017 22:00:00 11,1 9,8 6,5 15,0 15,0 6 3 8 5 O 1012,9 13 0 0,0
18.10.2017 21:00:00 11,7 10,6 7,2 15,1 15,0 8 4 10 6 O 1012,6 10 0 0,0
18.10.2017 20:00:00 12,5 10,6 10,3 15,0 15,0 4 2 11 6 - 1012,9 10 0 0,0
18.10.2017 19:00:00 15,1 12,6 12,7 15,0 15,0 5 3 8 4 OZO 1012,4 7 22 0,0
18.10.2017 18:00:00 18,6 14,3 19,1 14,8 15,0 5 3 11 6 OZO 1012,2 10 39 0,0
18.10.2017 17:00:00 19,0 13,2 19,2 14,7 15,0 9 5 16 8 ZZO 1012,4 10 15 0,0
18.10.2017 16:00:00 21,0 12,7 23,4 14,5 15,0 9 5 18 10 Z 1012,7 10 60 0,0
18.10.2017 15:00:00 21,0 11,9 22,7 14,3 15,0 9 5 16 9 ZW 1012,8 10 60 0,0
18.10.2017 14:00:00 19,7 12,0 22,4 14,3 15,0 11 6 18 10 ZZO 1013,6 10 60 0,0
18.10.2017 13:00:00 18,6 11,2 20,0 14,2 15,0 11 6 20 11 ZZO 1014,2 10 60 0,0
18.10.2017 12:00:00 16,4 10,5 18,2 14,2 15,0 15 8 21 12 ZZO 1014,3 10 60 0,0
18.10.2017 11:00:00 14,7 10,7 14,7 14,3 15,0 11 6 16 9 OZO 1014,6 10 60 0,0
18.10.2017 10:00:00 11,9 9,6 10,0 14,3 15,0 11 6 16 9 OZO 1014,8 10 60 0,0
18.10.2017 09:00:00 9,8 8,6 7,7 14,4 15,0 11 6 18 10 O 1014,7 10 27 0,2
18.10.2017 08:00:00 8,8 7,7 6,2 14,5 15,0 9 5 15 8 ONO 1014,4 10 0 0,0
18.10.2017 07:00:00 8,7 7,6 6,4 14,6 15,0 4 2 9 5 - 1014,4 10 0 0,0
18.10.2017 06:00:00 8,3 7,7 6,6 14,7 15,0 8 4 14 8 ONO 1014,8 9 0 0,0
18.10.2017 05:00:00 8,4 7,8 5,9 14,8 15,0 11 6 13 7 O 1014,7 8 0 0,0
18.10.2017 04:00:00 8,4 7,6 4,7 15,0 15,0 5 3 13 7 O 1014,9 9 0 0,0
18.10.2017 03:00:00 9,2 8,3 7,5 15,1 15,0 9 5 16 8 O 1015,0 10 0 0,0
18.10.2017 02:00:00 9,5 8,7 6,9 15,2 15,0 11 6 17 9 OZO 1015,1 10 0 0,2
18.10.2017 01:00:00 9,9 9,0 8,1 15,2 15,0 9 5 14 8 O 1015,4 10 0 0,0
18.10.2017 00:00:00 9,9 9,3 7,7 15,4 15,0 11 6 14 8 O 1015,8 10 0 0,0
17.10.2017 23:00:00 11,4 10,8 5,7 15,4 15,0 8 4 12 6 O 1016,1 8 0 0,0
17.10.2017 22:00:00 11,6 11,0 6,3 15,5 15,0 0 0 6 3 N 1016,3 4,4 0 0,0
17.10.2017 21:00:00 13,3 12,5 8,0 15,5 15,0 0 0 4 2 N 1016,6 5 0 0,0
17.10.2017 20:00:00 15,9 14,3 11,4 15,4 15,0 2 1 16 9 - 1017,0 10 0 0,0
17.10.2017 19:00:00 19,0 15,9 16,9 15,3 15,0 8 4 17 9 NO 1016,7 10 8 0,0
17.10.2017 18:00:00 21,3 16,7 22,4 15,2 15,0 2 1 8 5 - 1017,1 10 60 0,0
17.10.2017 17:00:00 22,4 16,4 23,9 15,0 15,0 8 4 12 6 OZO 1017,6 10 60 0,0
17.10.2017 16:00:00 22,6 15,7 24,9 14,8 15,0 8 4 12 6 ZO 1018,3 10 60 0,0
17.10.2017 15:00:00 21,6 15,7 24,3 14,6 15,0 8 4 12 6 OZO 1019,1 10 60 0,0
17.10.2017 14:00:00 20,5 15,3 22,8 14,5 15,0 9 5 16 8 OZO 1020,2 10 60 0,0
17.10.2017 13:00:00 18,9 15,0 20,2 14,4 15,0 8 4 12 6 OZO 1021,2 10 60 0,0
17.10.2017 12:00:00 16,6 13,9 17,2 14,4 15,0 8 4 10 5 O 1021,8 10 50 0,0
17.10.2017 11:00:00 14,2 12,9 13,2 14,5 15,0 8 4 10 6 OZO 1022,5 9 0 0,0
17.10.2017 10:00:00 11,5 11,0 8,7 14,6 15,0 5 3 9 5 OZO 1023,0 5 0 0,0
17.10.2017 09:00:00 9,1 8,6 7,0 14,6 15,0 4 2 5 3 - 1023,1 4,1 0 0,0
17.10.2017 08:00:00 9,1 8,6 6,6 14,7 15,0 4 2 7 4 - 1022,8 5 0 0,0
17.10.2017 07:00:00 9,8 9,3 7,1 14,8 15,0 0 0 5 3 N 1022,8 6 0 0,0
17.10.2017 06:00:00 10,7 10,1 7,1 14,9 15,0 5 3 8 5 ONO 1022,7 7 0 0,0
17.10.2017 05:00:00 11,0 10,2 7,2 15,0 15,0 5 3 9 5 O 1022,8 7 0 0,0
17.10.2017 04:00:00 11,1 10,3 7,2 15,1 15,0 5 3 9 5 O 1022,9 8 0 0,2
17.10.2017 03:00:00 11,7 10,6 7,5 15,2 15,0 5 3 9 5 O 1023,0 9 0 0,0
17.10.2017 02:00:00 11,9 11,1 8,9 15,2 15,0 8 4 9 5 O 1022,8 9 0 0,0
17.10.2017 01:00:00 12,6 11,3 10,6 15,3 15,0 8 4 11 6 O 1022,8 10 0 0,0
17.10.2017 00:00:00 13,3 11,9 9,3 15,4 15,0 8 4 9 5 O 1022,6 10 0 0,0
16.10.2017 23:00:00 12,4 11,3 9,2 15,5 15,0 4 2 7 4 - 1022,4 10 0 0,0
16.10.2017 22:00:00 12,0 11,1 9,3 15,5 15,0 4 2 8 4 - 1022,2 10 0 0,0
16.10.2017 21:00:00 13,6 12,2 10,3 15,5 15,0 0 0 8 5 N 1022,1 10 0 0,0
16.10.2017 20:00:00 14,8 12,8 11,7 15,5 15,0 5 3 14 8 O 1021,7 10 0 0,0
16.10.2017 19:00:00 17,2 13,9 12,4 15,4 15,0 2 1 14 8 - 1021,1 10 26 0,0
16.10.2017 18:00:00 20,4 14,7 19,9 15,3 15,0 11 6 18 10 ZO 1020,5 10 60 0,0
16.10.2017 17:00:00 22,5 15,3 23,8 15,1 15,0 11 6 21 12 Z 1021,2 10 60 0,0
16.10.2017 16:00:00 22,5 15,3 24,5 15,0 15,0 13 7 27 15 ZZO 1021,4 10 60 0,0
16.10.2017 15:00:00 22,2 15,8 24,3 14,8 15,0 16 9 23 12 ZZO 1021,5 10 60 0,0
16.10.2017 14:00:00 21,4 15,2 22,9 14,7 15,0 15 8 21 12 ZO 1022,0 10 60 0,0
16.10.2017 13:00:00 19,7 14,5 22,3 14,6 15,0 15 8 26 14 ZZO 1022,7 10 60 0,0
16.10.2017 12:00:00 18,8 14,1 20,3 14,6 15,0 11 6 19 10 ZO 1023,1 10 60 0,0
16.10.2017 11:00:00 17,0 12,9 16,3 14,6 15,0 11 6 20 11 ZO 1023,5 10 60 0,0
16.10.2017 10:00:00 13,8 12,2 12,0 14,6 15,0 11 6 16 9 OZO 1023,3 10 60 0,0
16.10.2017 09:00:00 11,1 10,5 10,1 14,7 15,0 11 6 16 9 O 1023,5 9 30 0,0
16.10.2017 08:00:00 10,8 10,0 10,0 14,8 15,0 13 7 17 9 OZO 1023,2 10 0 0,0
16.10.2017 07:00:00 11,2 10,4 10,0 14,8 15,0 13 7 16 9 OZO 1023,1 10 0 0,0
16.10.2017 06:00:00 11,6 10,7 9,9 14,9 15,0 11 6 19 10 OZO 1022,9 10 0 0,0
16.10.2017 05:00:00 11,7 10,8 10,6 14,9 15,0 8 4 14 7 O 1023,0 10 0 0,0
16.10.2017 04:00:00 12,0 10,9 10,6 15,0 15,0 8 4 19 10 O 1023,3 10 0 0,2
16.10.2017 03:00:00 12,6 11,2 11,1 15,1 15,0 9 5 19 10 OZO 1023,3 10 0 0,0
16.10.2017 02:00:00 12,4 11,3 11,2 15,1 15,0 8 4 14 8 O 1023,5 10 0 0,0
16.10.2017 01:00:00 12,6 11,5 11,8 15,2 15,0 12 6 15 8 O 1023,5 12 0 0,0
16.10.2017 00:00:00 13,1 11,8 11,5 15,2 15,0 8 4 15 8 OZO 1023,6 10 0 0,0
15.10.2017 23:00:00 14,4 12,1 12,5 15,2 15,0 8 4 19 11 OZO 1023,3 10 0 0,0
15.10.2017 22:00:00 16,1 13,0 13,8 15,2 15,0 5 3 15 8 - 1023,0 10 0 0,0
15.10.2017 21:00:00 16,5 13,6 14,7 15,2 15,0 8 4 18 10 OZO 1022,8 10 0 0,0
15.10.2017 20:00:00 19,0 14,3 15,5 15,2 15,0 15 8 23 13 ZZO 1022,4 10 0 0,0
15.10.2017 19:00:00 18,8 14,5 16,6 15,1 15,0 13 7 23 12 OZO 1022,2 10 28 0,0
15.10.2017 18:00:00 20,4 15,0 21,0 15,0 15,0 9 5 15 8 O 1022,0 10 60 0,0
15.10.2017 17:00:00 21,4 15,0 22,4 14,8 15,0 13 7 22 12 ZO 1021,9 10 60 0,0
15.10.2017 16:00:00 21,9 14,5 24,4 14,6 15,0 15 8 21 11 ZZO 1022,4 10 60 0,0
15.10.2017 15:00:00 21,5 15,3 23,7 14,4 15,0 11 6 21 12 ZZO 1022,7 10 60 0,0
15.10.2017 14:00:00 20,4 14,5 23,4 14,3 15,0 13 7 18 10 ZZO 1023,1 10 60 0,0
15.10.2017 13:00:00 19,2 14,0 21,4 14,2 15,0 11 6 17 9 ZO 1023,7 10 60 0,0
15.10.2017 12:00:00 17,3 13,6 18,2 14,2 15,0 9 5 17 9 OZO 1024,1 10 60 0,0
15.10.2017 11:00:00 15,2 12,9 15,1 14,2 15,0 15 8 21 11 ZO 1024,3 10 60 0,0
15.10.2017 10:00:00 12,4 11,5 10,7 14,3 15,0 16 9 21 12 ZO 1024,4 10 60 0,0
15.10.2017 09:00:00 10,0 9,7 7,7 14,4 15,0 15 8 19 10 O 1024,4 11 32 0,0
15.10.2017 08:00:00 8,7 8,4 7,8 14,4 15,0 13 7 17 9 O 1024,5 7 0 0,0
15.10.2017 07:00:00 8,6 8,3 7,3 14,6 15,0 13 7 16 8 O 1024,5 7 0 0,0
15.10.2017 06:00:00 8,3 7,9 7,4 14,6 15,0 11 6 16 8 O 1024,5 7 0 0,0
15.10.2017 05:00:00 9,7 9,4 8,7 14,7 15,0 13 7 18 10 O 1024,5 9 0 0,0
15.10.2017 04:00:00 10,1 9,6 9,1 14,8 15,0 13 7 17 9 O 1024,5 9 0 0,2
15.10.2017 03:00:00 10,7 10,4 8,6 15,0 15,0 11 6 16 9 O 1025,0 10 0 0,0
15.10.2017 02:00:00 10,0 9,7 8,5 15,0 15,0 13 7 17 9 O 1025,4 10 0 0,0
15.10.2017 01:00:00 10,0 9,7 6,6 15,1 15,0 15 8 16 9 OZO 1025,5 10 0 0,0
15.10.2017 00:00:00 10,1 9,8 5,9 15,2 15,0 8 4 10 5 OZO 1025,7 10 0 0,0
14.10.2017 23:00:00 9,4 8,8 5,0 15,3 15,0 5 3 7 4 OZO 1026,0 10 0 0,0
14.10.2017 22:00:00 10,2 9,4 7,7 15,4 15,0 0 0 10 5 N 1026,1 10 0 0,0
14.10.2017 21:00:00 11,3 10,0 6,8 15,4 15,0 4 2 5 3 - 1026,2 10 0 0,0
14.10.2017 20:00:00 12,7 11,1 9,2 15,4 15,0 2 1 9 5 OZO 1026,0 10 0 0,0
14.10.2017 19:00:00 16,4 13,1 10,7 15,3 15,0 0 0 9 5 N 1025,5 10 30 0,0
14.10.2017 18:00:00 20,3 14,4 22,2 15,1 15,0 8 4 13 7 ZZO 1025,4 10 60 0,0
14.10.2017 17:00:00 21,6 14,0 22,9 15,0 15,0 9 5 16 8 ZO 1025,5 10 60 0,0
14.10.2017 16:00:00 22,0 15,4 24,6 14,7 15,0 8 4 17 9 ZZO 1025,8 10 60 0,0
14.10.2017 15:00:00 21,7 14,3 24,9 14,5 15,0 11 6 18 10 ZZO 1026,1 10 60 0,0
14.10.2017 14:00:00 21,2 14,8 24,2 14,4 15,0 9 5 14 8 ZZO 1026,8 10 60 0,0
14.10.2017 13:00:00 19,7 14,1 22,6 14,3 15,0 9 5 15 8 OZO 1027,5 10 60 0,0
14.10.2017 12:00:00 17,7 14,2 19,7 14,3 15,0 8 4 10 6 OZO 1027,8 10 60 0,0
14.10.2017 11:00:00 14,9 13,1 16,1 14,3 15,0 5 3 10 5 - 1028,1 10 60 0,0
14.10.2017 10:00:00 11,4 10,9 11,5 14,4 15,0 4 2 7 4 - 1028,2 10 60 0,2
14.10.2017 09:00:00 8,6 8,5 5,1 14,5 15,0 0 0 5 3 N 1028,0 1,9 33 0,0
14.10.2017 08:00:00 8,3 8,2 5,6 14,6 15,0 5 3 7 4 - 1027,5 1,0 0 0,0
14.10.2017 07:00:00 8,2 8,1 6,9 14,7 15,0 4 2 6 3 - 1027,4 0,6 0 0,0
14.10.2017 06:00:00 7,5 7,4 5,1 14,8 15,0 4 2 4 2 - 1027,3 0,7 0 0,0
14.10.2017 05:00:00 8,1 7,8 5,0 15,0 15,0 0 0 5 3 N 1027,4 0,3 0 0,0
14.10.2017 04:00:00 9,1 8,8 5,5 15,0 15,0 5 3 8 5 - 1027,4 1,1 0 0,0
14.10.2017 03:00:00 9,4 9,1 5,4 15,2 15,0 5 3 10 6 - 1027,7 5 0 0,0
14.10.2017 02:00:00 8,6 8,3 5,9 15,3 15,0 2 1 4 2 - 1027,8 3,9 0 0,0
14.10.2017 01:00:00 9,9 9,4 7,4 15,4 15,0 0 0 5 3 N 1027,5 5 0 0,2
14.10.2017 00:00:00 10,0 9,5 6,8 15,5 15,0 4 2 7 4 - 1027,3 7 0 0,0
13.10.2017 23:00:00 10,7 10,1 6,7 15,5 15,0 3 2 8 4 O 1027,2 2,3 0 0,0
13.10.2017 22:00:00 11,3 10,8 7,6 15,6 15,0 5 3 7 4 N 1027,1 10 0 0,0
13.10.2017 21:00:00 12,7 12,1 9,6 15,6 15,0 4 2 6 4 O 1026,9 10 0 0,0
13.10.2017 20:00:00 13,5 12,4 10,9 15,6 15,0 2 1 5 3 - 1026,8 10 0 0,0
13.10.2017 19:00:00 16,8 13,9 12,1 15,5 15,0 4 2 9 5 ZZO 1026,3 10 27 0,0
13.10.2017 18:00:00 20,5 14,6 19,5 15,4 15,0 4 2 10 6 - 1026,2 10 41 0,0
13.10.2017 17:00:00 19,9 14,3 20,3 15,2 15,0 4 2 12 6 - 1026,0 10 10 0,0
13.10.2017 16:00:00 20,2 14,8 20,4 15,0 15,0 5 3 14 7 - 1026,2 10 1 0,0
13.10.2017 15:00:00 20,2 14,3 21,4 14,8 15,0 9 5 20 11 ZW 1026,2 10 33 0,0
13.10.2017 14:00:00 20,2 14,6 23,0 14,7 15,0 11 6 20 11 ZZW 1026,5 10 43 0,0
13.10.2017 13:00:00 20,7 15,7 21,5 14,6 15,0 9 5 18 10 ZZO 1026,8 10 55 0,0
13.10.2017 12:00:00 18,0 15,3 17,6 14,5 15,0 8 4 11 6 OZO 1027,3 10 33 0,0

tt = temperatuur
td = dauwpunt
tt 5cm = temperatuur 5cm
tt -20cm = temperatuur -20cm
tt -100cm = temperatuur -100cm
ff = windsnelheid
fx = windstoten
dd = windrichting
ppp = luchtdruk
vv = zicht
sd = Zonneschijnduur
rr = neerslag

Weerstations in de omgeving